SIA965 WIII-WSSS

Flight info

Callsign SIA965
Flight time 1h 22m
Altitude 34000
Route DOLTA G579 REPOV REPOV2B
Aircraft B77W/H-SDE1E2E3FGHIJ2J3J4J5M1RWXY/LB1D1

Departure

Time 2026-05-07 10:51
Airport Soekarno-Hatta International Airport (WIII)

Arrival

Time 2026-05-07 12:13
Airport Singapore Changi Airport (WSSS)
Time Latitude Longitude Altitude Speed Heading
2026-05-07 10:19 -6.11811 106.66309 43 ft 0 kts 158°
2026-05-07 10:34 -6.11794 106.66302 41 ft 4 kts 158°
2026-05-07 10:34 -6.11768 106.66292 41 ft 4 kts 158°
2026-05-07 10:34 -6.11747 106.66283 40 ft 2 kts 158°
2026-05-07 10:35 -6.11728 106.66271 37 ft 4 kts 110°
2026-05-07 10:35 -6.11729 106.66249 38 ft 4 kts 68°
2026-05-07 10:35 -6.11738 106.66225 40 ft 2 kts 68°
2026-05-07 10:35 -6.11739 106.66224 40 ft 0 kts 68°
2026-05-07 10:41 -6.11730 106.66247 43 ft 10 kts 68°
2026-05-07 10:41 -6.11702 106.66317 43 ft 11 kts 68°
2026-05-07 10:42 -6.11672 106.66387 43 ft 11 kts 58°
2026-05-07 10:42 -6.11604 106.66398 43 ft 11 kts 338°
2026-05-07 10:42 -6.11533 106.66368 43 ft 11 kts 338°
2026-05-07 10:42 -6.11461 106.66339 43 ft 11 kts 338°
2026-05-07 10:43 -6.11389 106.66310 43 ft 11 kts 338°
2026-05-07 10:43 -6.11354 106.66250 43 ft 11 kts 259°
2026-05-07 10:43 -6.11381 106.66176 43 ft 11 kts 248°
2026-05-07 10:43 -6.11410 106.66101 43 ft 11 kts 248°
2026-05-07 10:44 -6.11440 106.66027 43 ft 12 kts 248°
2026-05-07 10:44 -6.11470 106.65951 43 ft 12 kts 248°
2026-05-07 10:44 -6.11502 106.65872 43 ft 13 kts 248°
2026-05-07 10:44 -6.11540 106.65779 43 ft 15 kts 248°
2026-05-07 10:45 -6.11580 106.65679 43 ft 15 kts 248°
2026-05-07 10:45 -6.11620 106.65580 43 ft 15 kts 248°
2026-05-07 10:45 -6.11661 106.65478 43 ft 17 kts 248°
2026-05-07 10:45 -6.11705 106.65366 44 ft 18 kts 248°
2026-05-07 10:46 -6.11751 106.65249 44 ft 18 kts 248°
2026-05-07 10:46 -6.11798 106.65132 44 ft 18 kts 248°
2026-05-07 10:46 -6.11834 106.65039 44 ft 18 kts 248°
2026-05-07 10:46 -6.11879 106.64927 44 ft 18 kts 248°
2026-05-07 10:47 -6.11925 106.64811 44 ft 18 kts 248°
2026-05-07 10:47 -6.11971 106.64694 44 ft 18 kts 248°
2026-05-07 10:47 -6.12018 106.64577 44 ft 18 kts 248°
2026-05-07 10:47 -6.12065 106.64463 44 ft 18 kts 248°
2026-05-07 10:48 -6.12112 106.64346 44 ft 18 kts 248°
2026-05-07 10:48 -6.12158 106.64229 44 ft 18 kts 248°
2026-05-07 10:48 -6.12205 106.64113 44 ft 18 kts 248°
2026-05-07 10:48 -6.12250 106.63996 44 ft 18 kts 250°
2026-05-07 10:49 -6.12215 106.63895 45 ft 14 kts 333°
2026-05-07 10:49 -6.12125 106.63911 46 ft 14 kts 24°
2026-05-07 10:49 -6.12063 106.63977 45 ft 11 kts 68°
2026-05-07 10:49 -6.12061 106.63980 45 ft 0 kts 68°
2026-05-07 10:50 -6.12003 106.64126 45 ft 61 kts 68°
2026-05-07 10:50 -6.11739 106.64790 48 ft 140 kts 68°
2026-05-07 10:50 -6.11297 106.65887 174 ft 189 kts 68°
2026-05-07 10:50 -6.10797 106.67181 616 ft 210 kts 68°
2026-05-07 10:51 -6.10263 106.68527 1561 ft 203 kts 64°
2026-05-07 10:51 -6.09291 106.69545 2309 ft 211 kts 33°
2026-05-07 10:51 -6.07897 106.70239 2723 ft 234 kts 27°
2026-05-07 10:51 -6.06384 106.70931 3420 ft 240 kts 30°
2026-05-07 10:52 -6.04860 106.71738 4021 ft 257 kts 32°
2026-05-07 10:52 -6.03242 106.72652 4624 ft 270 kts 33°
2026-05-07 10:52 -6.01594 106.73635 4983 ft 282 kts 34°
2026-05-07 10:52 -5.99878 106.74558 5122 ft 280 kts 19°
2026-05-07 10:53 -5.97924 106.74678 5954 ft 286 kts 349°
2026-05-07 10:53 -5.96131 106.73899 6840 ft 291 kts 323°
2026-05-07 10:53 -5.94833 106.72338 7654 ft 293 kts 297°
2026-05-07 10:53 -5.93955 106.70459 8328 ft 302 kts 294°
2026-05-07 10:54 -5.93090 106.68528 9186 ft 304 kts 295°
2026-05-07 10:54 -5.92214 106.66591 10043 ft 306 kts 295°
2026-05-07 10:54 -5.91306 106.64614 10632 ft 320 kts 296°
2026-05-07 10:54 -5.90028 106.62697 10788 ft 345 kts 315°
2026-05-07 10:55 -5.88197 106.61009 11038 ft 369 kts 320°
2026-05-07 10:55 -5.86223 106.59295 11691 ft 380 kts 320°
2026-05-07 10:55 -5.84209 106.57540 12583 ft 386 kts 320°
2026-05-07 10:55 -5.82202 106.55771 13493 ft 391 kts 320°
2026-05-07 10:56 -5.80158 106.53947 14340 ft 396 kts 319°
2026-05-07 10:56 -5.78094 106.52089 15145 ft 401 kts 319°
2026-05-07 10:56 -5.76006 106.50199 15931 ft 406 kts 319°
2026-05-07 10:56 -5.73898 106.48282 16700 ft 412 kts 319°
2026-05-07 10:57 -5.71759 106.46334 17423 ft 419 kts 319°
2026-05-07 10:57 -5.69598 106.44364 18253 ft 421 kts 318°
2026-05-07 10:57 -5.67413 106.42373 18905 ft 426 kts 319°
2026-05-07 10:57 -5.65216 106.40370 19669 ft 427 kts 319°
2026-05-07 10:58 -5.63002 106.38353 20328 ft 433 kts 319°
2026-05-07 10:58 -5.60787 106.36336 20934 ft 438 kts 319°
2026-05-07 10:58 -5.58520 106.34271 21614 ft 442 kts 319°
2026-05-07 10:58 -5.56238 106.32194 22317 ft 444 kts 319°
2026-05-07 10:59 -5.53945 106.30107 22828 ft 448 kts 319°
2026-05-07 10:59 -5.51619 106.27990 22812 ft 452 kts 319°
2026-05-07 10:59 -5.49295 106.25875 22817 ft 450 kts 319°
2026-05-07 10:59 -5.46892 106.23862 23043 ft 452 kts 326°
2026-05-07 11:00 -5.44242 106.22160 23673 ft 452 kts 332°
2026-05-07 11:00 -5.41446 106.20732 24247 ft 452 kts 338°
2026-05-07 11:00 -5.38534 106.19521 24773 ft 454 kts 339°
2026-05-07 11:00 -5.35632 106.18343 25248 ft 458 kts 340°
2026-05-07 11:01 -5.32660 106.17141 25719 ft 462 kts 340°
2026-05-07 11:01 -5.29668 106.15929 26205 ft 466 kts 339°
2026-05-07 11:01 -5.26656 106.14701 26684 ft 469 kts 339°
2026-05-07 11:01 -5.23624 106.13457 27181 ft 472 kts 339°
2026-05-07 11:02 -5.20576 106.12203 27644 ft 475 kts 339°
2026-05-07 11:02 -5.17506 106.10936 28101 ft 479 kts 339°
2026-05-07 11:02 -5.14413 106.09659 28554 ft 482 kts 339°
2026-05-07 11:02 -5.11301 106.08373 29007 ft 485 kts 339°
2026-05-07 11:03 -5.08175 106.07081 29473 ft 487 kts 339°
2026-05-07 11:03 -5.05083 106.05804 30003 ft 487 kts 339°
2026-05-07 11:03 -5.01958 106.04513 30567 ft 484 kts 339°
2026-05-07 11:03 -4.98851 106.03230 31141 ft 482 kts 339°
2026-05-07 11:04 -4.95762 106.01956 31778 ft 478 kts 339°
2026-05-07 11:04 -4.92693 106.00689 32380 ft 476 kts 339°
2026-05-07 11:04 -4.89630 105.99425 32890 ft 476 kts 338°
2026-05-07 11:04 -4.86575 105.98165 33470 ft 474 kts 338°
2026-05-07 11:05 -4.83524 105.96907 33843 ft 475 kts 338°
2026-05-07 11:05 -4.80468 105.95646 33811 ft 475 kts 338°
2026-05-07 11:05 -4.74403 105.93145 33819 ft 475 kts 338°
2026-05-07 11:06 -4.68262 105.90614 33825 ft 479 kts 338°
2026-05-07 11:06 -4.62091 105.88069 33823 ft 480 kts 338°
2026-05-07 11:07 -4.55903 105.85519 33813 ft 481 kts 338°
2026-05-07 11:07 -4.49765 105.82990 33812 ft 480 kts 338°
2026-05-07 11:08 -4.43602 105.80450 33815 ft 478 kts 338°
2026-05-07 11:08 -4.37461 105.77921 33824 ft 475 kts 338°
2026-05-07 11:09 -4.31370 105.75413 33808 ft 472 kts 338°
2026-05-07 11:09 -4.25325 105.72923 33816 ft 468 kts 338°
2026-05-07 11:10 -4.19343 105.70461 33816 ft 468 kts 338°
2026-05-07 11:10 -4.13316 105.67979 33819 ft 469 kts 338°
2026-05-07 11:11 -4.07267 105.65490 33819 ft 471 kts 338°
2026-05-07 11:11 -4.01197 105.62993 33808 ft 473 kts 338°
2026-05-07 11:12 -3.95149 105.60504 33819 ft 473 kts 338°
2026-05-07 11:12 -3.89054 105.57997 33817 ft 473 kts 338°
2026-05-07 11:13 -3.83289 105.55625 33815 ft 472 kts 338°
2026-05-07 11:13 -3.77219 105.53129 33821 ft 471 kts 338°
2026-05-07 11:14 -3.71195 105.50652 33814 ft 471 kts 338°
2026-05-07 11:14 -3.65128 105.48158 33812 ft 474 kts 338°
2026-05-07 11:15 -3.58990 105.45635 33827 ft 480 kts 338°
2026-05-07 11:15 -3.52782 105.43084 33826 ft 483 kts 338°
2026-05-07 11:16 -3.46602 105.40544 33820 ft 483 kts 338°
2026-05-07 11:16 -3.40401 105.37996 33812 ft 480 kts 338°
2026-05-07 11:17 -3.34244 105.35466 33813 ft 477 kts 338°
2026-05-07 11:17 -3.28116 105.32949 33815 ft 475 kts 338°
2026-05-07 11:18 -3.22013 105.30443 33817 ft 474 kts 338°
2026-05-07 11:18 -3.15956 105.27956 33833 ft 473 kts 338°
2026-05-07 11:19 -3.09863 105.25454 33816 ft 473 kts 338°
2026-05-07 11:19 -3.03776 105.22954 33823 ft 472 kts 338°
2026-05-07 11:20 -2.97693 105.20457 33820 ft 472 kts 338°
2026-05-07 11:20 -2.91653 105.17977 33812 ft 473 kts 338°
2026-05-07 11:21 -2.85546 105.15472 33827 ft 476 kts 338°
2026-05-07 11:21 -2.79406 105.12952 33827 ft 478 kts 338°
2026-05-07 11:22 -2.73236 105.10421 33822 ft 480 kts 338°
2026-05-07 11:22 -2.68092 105.08310 33820 ft 481 kts 338°
2026-05-07 11:23 -2.60902 105.05360 33818 ft 480 kts 338°
2026-05-07 11:23 -2.54724 105.02826 33818 ft 479 kts 339°
2026-05-07 11:24 -2.48568 105.00301 33817 ft 477 kts 339°
2026-05-07 11:24 -2.43474 104.98212 33817 ft 476 kts 339°
2026-05-07 11:25 -2.36361 104.95295 33818 ft 475 kts 339°
2026-05-07 11:25 -2.30251 104.92790 33822 ft 475 kts 339°
2026-05-07 11:26 -2.24132 104.90282 33816 ft 476 kts 338°
2026-05-07 11:26 -2.18004 104.87769 33812 ft 477 kts 339°
2026-05-07 11:27 -2.11856 104.85249 33819 ft 478 kts 339°
2026-05-07 11:27 -2.06736 104.83151 33818 ft 479 kts 339°
2026-05-07 11:28 -2.00561 104.80620 33814 ft 480 kts 339°
2026-05-07 11:28 -1.93382 104.77678 33813 ft 480 kts 339°
2026-05-07 11:29 -1.87204 104.75146 33816 ft 480 kts 339°
2026-05-07 11:29 -1.82075 104.73044 33813 ft 479 kts 339°
2026-05-07 11:30 -1.75905 104.70516 33814 ft 479 kts 339°
2026-05-07 11:30 -1.69743 104.67992 33817 ft 479 kts 339°
2026-05-07 11:31 -1.63619 104.65483 33815 ft 479 kts 339°
2026-05-07 11:31 -1.57455 104.62958 33814 ft 479 kts 339°
2026-05-07 11:32 -1.48206 104.59170 33816 ft 479 kts 339°
2026-05-07 11:33 -1.42037 104.56643 33811 ft 479 kts 339°
2026-05-07 11:33 -1.35869 104.54117 33815 ft 479 kts 339°
2026-05-07 11:34 -1.29704 104.51592 33814 ft 479 kts 339°
2026-05-07 11:34 -1.23570 104.49080 33813 ft 479 kts 339°
2026-05-07 11:35 -1.17402 104.46555 33812 ft 479 kts 339°
2026-05-07 11:35 -1.11230 104.44027 33811 ft 479 kts 339°
2026-05-07 11:36 -1.05054 104.41499 33811 ft 479 kts 339°
2026-05-07 11:36 -0.98884 104.38974 33812 ft 479 kts 339°
2026-05-07 11:37 -0.92749 104.36463 33812 ft 480 kts 339°
2026-05-07 11:37 -0.86572 104.33934 33811 ft 480 kts 339°
2026-05-07 11:38 -0.80398 104.31406 33813 ft 480 kts 339°
2026-05-07 11:38 -0.74221 104.28876 33814 ft 480 kts 339°
2026-05-07 11:39 -0.68048 104.26348 33807 ft 480 kts 339°
2026-05-07 11:39 -0.61957 104.23853 33761 ft 468 kts 339°
2026-05-07 11:40 -0.56001 104.21589 33583 ft 448 kts 345°
2026-05-07 11:40 -0.52997 104.20869 33227 ft 441 kts 349°
2026-05-07 11:40 -0.51476 104.20569 32961 ft 440 kts 350°
2026-05-07 11:40 -0.49974 104.20280 32668 ft 440 kts 350°
2026-05-07 11:41 -0.48468 104.19993 32398 ft 440 kts 350°
2026-05-07 11:41 -0.46968 104.19709 32174 ft 438 kts 350°
2026-05-07 11:41 -0.45473 104.19425 31988 ft 436 kts 350°
2026-05-07 11:41 -0.43988 104.19142 31811 ft 433 kts 350°
2026-05-07 11:42 -0.42532 104.18862 31638 ft 431 kts 350°
2026-05-07 11:42 -0.41065 104.18578 31439 ft 429 kts 350°
2026-05-07 11:42 -0.39604 104.18293 31202 ft 428 kts 350°
2026-05-07 11:42 -0.38142 104.18007 30937 ft 428 kts 350°
2026-05-07 11:43 -0.36682 104.17720 30675 ft 428 kts 350°
2026-05-07 11:43 -0.35219 104.17431 30406 ft 428 kts 350°
2026-05-07 11:43 -0.33759 104.17142 30162 ft 428 kts 350°
2026-05-07 11:43 -0.32300 104.16852 29973 ft 427 kts 350°
2026-05-07 11:44 -0.30847 104.16564 29757 ft 425 kts 350°
2026-05-07 11:44 -0.29401 104.16276 29544 ft 423 kts 350°
2026-05-07 11:44 -0.27961 104.15989 29294 ft 422 kts 350°
2026-05-07 11:44 -0.26522 104.15703 29031 ft 421 kts 350°
2026-05-07 11:45 -0.25106 104.15421 28773 ft 420 kts 350°
2026-05-07 11:45 -0.23674 104.15136 28525 ft 419 kts 350°
2026-05-07 11:45 -0.22246 104.14852 28271 ft 418 kts 350°
2026-05-07 11:45 -0.20820 104.14568 28020 ft 417 kts 350°
2026-05-07 11:46 -0.19398 104.14285 27776 ft 416 kts 350°
2026-05-07 11:46 -0.17979 104.14003 27528 ft 415 kts 350°
2026-05-07 11:46 -0.16564 104.13722 27280 ft 414 kts 350°
2026-05-07 11:46 -0.15153 104.13441 27048 ft 413 kts 350°
2026-05-07 11:47 -0.13762 104.13164 26806 ft 412 kts 350°
2026-05-07 11:47 -0.12356 104.12885 26542 ft 412 kts 350°
2026-05-07 11:47 -0.10951 104.12606 26275 ft 412 kts 350°
2026-05-07 11:47 -0.09545 104.12326 26020 ft 412 kts 350°
2026-05-07 11:48 -0.08141 104.12047 25776 ft 411 kts 350°
2026-05-07 11:48 -0.06740 104.11769 25526 ft 411 kts 350°
2026-05-07 11:48 -0.04990 104.11420 25199 ft 403 kts 350°
2026-05-07 11:48 -0.02284 104.10881 24688 ft 392 kts 350°
2026-05-07 11:49 0.00354 104.10356 24192 ft 382 kts 350°
2026-05-07 11:49 0.02933 104.09843 23709 ft 375 kts 351°
2026-05-07 11:49 0.05488 104.09336 23208 ft 375 kts 351°
2026-05-07 11:49 0.08018 104.08834 22670 ft 376 kts 351°
2026-05-07 11:50 0.10587 104.08324 22128 ft 376 kts 351°
2026-05-07 11:50 0.13145 104.07815 21598 ft 373 kts 351°
2026-05-07 11:50 0.15685 104.07310 21063 ft 371 kts 351°
2026-05-07 11:50 0.18233 104.06804 20571 ft 376 kts 351°
2026-05-07 11:51 0.20801 104.06293 20067 ft 377 kts 351°
2026-05-07 11:51 0.23375 104.05781 19564 ft 377 kts 351°
2026-05-07 11:51 0.25951 104.05269 19070 ft 378 kts 351°
2026-05-07 11:51 0.28528 104.04757 18589 ft 378 kts 351°
2026-05-07 11:52 0.31105 104.04246 18111 ft 378 kts 351°
2026-05-07 11:52 0.33684 104.03735 17562 ft 377 kts 351°
2026-05-07 11:52 0.36260 104.03225 17024 ft 377 kts 351°
2026-05-07 11:52 0.38819 104.02718 16728 ft 373 kts 351°
2026-05-07 11:53 0.41313 104.02223 16655 ft 367 kts 351°
2026-05-07 11:53 0.43799 104.01729 16619 ft 361 kts 351°
2026-05-07 11:53 0.46240 104.01244 16572 ft 355 kts 351°
2026-05-07 11:53 0.48643 104.00768 16533 ft 349 kts 351°
2026-05-07 11:54 0.51009 104.00299 16474 ft 344 kts 351°
2026-05-07 11:54 0.53348 103.99835 16362 ft 342 kts 351°
2026-05-07 11:54 0.55682 103.99373 16160 ft 342 kts 351°
2026-05-07 11:54 0.58014 103.98911 15980 ft 342 kts 351°
2026-05-07 11:55 0.60342 103.98450 15804 ft 341 kts 351°
2026-05-07 11:55 0.62667 103.97989 15652 ft 340 kts 351°
2026-05-07 11:55 0.64986 103.97529 15489 ft 339 kts 351°
2026-05-07 11:55 0.67272 103.97076 15192 ft 341 kts 351°
2026-05-07 11:56 0.69604 103.96614 14850 ft 342 kts 351°
2026-05-07 11:56 0.71926 103.96211 14499 ft 334 kts 359°
2026-05-07 11:56 0.74192 103.96493 14137 ft 326 kts 21°
2026-05-07 11:56 0.76269 103.97347 13812 ft 322 kts 25°
2026-05-07 11:57 0.78326 103.98236 13448 ft 323 kts 25°
2026-05-07 11:57 0.80390 103.99127 13044 ft 323 kts 25°
2026-05-07 11:57 0.82459 104.00015 12665 ft 324 kts 25°
2026-05-07 11:57 0.84503 104.00889 12269 ft 324 kts 24°
2026-05-07 11:58 0.86572 104.01770 11885 ft 323 kts 24°
2026-05-07 11:58 0.88633 104.02645 11496 ft 321 kts 24°
2026-05-07 11:58 0.90688 104.03516 11128 ft 320 kts 24°
2026-05-07 11:58 0.92734 104.04382 10755 ft 319 kts 24°
2026-05-07 11:59 0.94771 104.05244 10382 ft 318 kts 24°
2026-05-07 11:59 0.96805 104.06105 10028 ft 317 kts 24°
2026-05-07 11:59 0.98829 104.06961 9650 ft 316 kts 24°
2026-05-07 11:59 1.00847 104.07814 9244 ft 315 kts 24°
2026-05-07 12:00 1.02835 104.08655 8821 ft 304 kts 24°
2026-05-07 12:00 1.04747 104.09464 8409 ft 293 kts 24°
2026-05-07 12:00 1.06625 104.10258 8036 ft 293 kts 24°
2026-05-07 12:00 1.08458 104.11033 7638 ft 284 kts 24°
2026-05-07 12:01 1.10284 104.11806 7280 ft 288 kts 24°
2026-05-07 12:01 1.12138 104.12590 7018 ft 288 kts 24°
2026-05-07 12:01 1.13973 104.13367 7003 ft 288 kts 24°
2026-05-07 12:01 1.15812 104.14149 6998 ft 287 kts 24°
2026-05-07 12:02 1.17626 104.14922 6988 ft 281 kts 24°
2026-05-07 12:02 1.19412 104.15683 6982 ft 278 kts 24°
2026-05-07 12:02 1.21185 104.16440 6991 ft 277 kts 24°
2026-05-07 12:02 1.22961 104.17197 6995 ft 277 kts 24°
2026-05-07 12:03 1.24805 104.17745 6987 ft 277 kts
2026-05-07 12:03 1.26704 104.17876 6798 ft 278 kts
2026-05-07 12:03 1.28632 104.17883 6497 ft 277 kts
2026-05-07 12:03 1.30560 104.17867 6156 ft 277 kts
2026-05-07 12:04 1.32488 104.17847 5819 ft 276 kts
2026-05-07 12:04 1.34403 104.17829 5510 ft 274 kts
2026-05-07 12:04 1.36310 104.17813 5184 ft 273 kts 360°
2026-05-07 12:04 1.38207 104.17798 4878 ft 272 kts
2026-05-07 12:05 1.40096 104.17784 4573 ft 271 kts
2026-05-07 12:05 1.41974 104.17774 4276 ft 269 kts
2026-05-07 12:05 1.43840 104.17765 3960 ft 268 kts
2026-05-07 12:05 1.45673 104.17759 3650 ft 267 kts
2026-05-07 12:06 1.47521 104.17755 3376 ft 264 kts
2026-05-07 12:06 1.49323 104.17752 3279 ft 254 kts
2026-05-07 12:06 1.51049 104.17738 3162 ft 242 kts 356°
2026-05-07 12:06 1.52668 104.17383 2963 ft 236 kts 337°
2026-05-07 12:07 1.54056 104.16553 2769 ft 229 kts 319°
2026-05-07 12:07 1.55053 104.15369 2648 ft 219 kts 299°
2026-05-07 12:07 1.55562 104.13987 2595 ft 213 kts 279°
2026-05-07 12:07 1.55672 104.12497 2529 ft 215 kts 271°
2026-05-07 12:08 1.55700 104.11040 2479 ft 203 kts 270°
2026-05-07 12:08 1.55723 104.09683 2486 ft 190 kts 270°
2026-05-07 12:08 1.55721 104.08399 2480 ft 187 kts 264°
2026-05-07 12:08 1.55300 104.07178 2478 ft 190 kts 231°
2026-05-07 12:09 1.54261 104.06380 2509 ft 190 kts 210°
2026-05-07 12:09 1.53113 104.05714 2513 ft 190 kts 210°
2026-05-07 12:09 1.51970 104.05065 2523 ft 186 kts 207°
2026-05-07 12:09 1.50819 104.04508 2504 ft 185 kts 203°
2026-05-07 12:10 1.49678 104.04010 2483 ft 173 kts 202°
2026-05-07 12:10 1.48572 104.03539 2261 ft 171 kts 202°
2026-05-07 12:10 1.47495 104.03082 2056 ft 165 kts 202°
2026-05-07 12:10 1.46431 104.02632 1854 ft 167 kts 201°
2026-05-07 12:11 1.45368 104.02180 1642 ft 165 kts 201°
2026-05-07 12:11 1.44324 104.01738 1413 ft 165 kts 202°
2026-05-07 12:11 1.43265 104.01289 1214 ft 165 kts 202°
2026-05-07 12:11 1.42262 104.00862 983 ft 153 kts 201°
2026-05-07 12:12 1.41324 104.00464 802 ft 142 kts 201°
2026-05-07 12:12 1.40436 104.00087 652 ft 139 kts 201°
2026-05-07 12:12 1.39542 103.99708 458 ft 139 kts 202°
2026-05-07 12:12 1.38651 103.99328 294 ft 139 kts 201°
2026-05-07 12:13 1.37767 103.98952 107 ft 137 kts 201°
2026-05-07 12:13 1.36900 103.98594 37 ft 126 kts 202°
2026-05-07 12:13 1.36242 103.98313 35 ft 77 kts 203°
2026-05-07 12:13 1.35905 103.98172 35 ft 33 kts 203°
2026-05-07 12:14 1.35709 103.98116 35 ft 20 kts 184°
2026-05-07 12:14 1.35572 103.98119 35 ft 20 kts 167°
2026-05-07 12:14 1.35519 103.98188 35 ft 14 kts 71°
2026-05-07 12:14 1.35598 103.98235 35 ft 14 kts 22°
2026-05-07 12:15 1.35686 103.98274 35 ft 14 kts 24°
2026-05-07 12:15 1.35774 103.98311 35 ft 14 kts 23°
2026-05-07 12:15 1.35849 103.98342 35 ft 10 kts 22°
2026-05-07 12:15 1.35917 103.98370 35 ft 11 kts 22°
2026-05-07 12:16 1.35986 103.98399 35 ft 11 kts 23°
2026-05-07 12:16 1.36055 103.98428 35 ft 11 kts 23°
2026-05-07 12:16 1.36111 103.98473 35 ft 11 kts 71°
2026-05-07 12:16 1.36092 103.98545 35 ft 11 kts 113°
2026-05-07 12:17 1.36076 103.98618 35 ft 11 kts 69°
2026-05-07 12:17 1.36140 103.98662 35 ft 12 kts 23°
2026-05-07 12:17 1.36191 103.98690 35 ft 8 kts 46°
2026-05-07 12:17 1.36190 103.98740 35 ft 7 kts 113°
2026-05-07 12:18 1.36181 103.98759 35 ft 2 kts 114°
2026-05-07 12:18 1.36177 103.98768 35 ft 1 kts 113°
2026-05-07 12:18 1.36175 103.98773 35 ft 1 kts 113°
2026-05-07 12:18 1.36174 103.98776 35 ft 0 kts 113°
2026-05-07 12:19 1.36174 103.98777 35 ft 0 kts 113°